OSSIPEE R NR EFFINGHAM: From 11/05/2018 00:00 to 11/21/2018 00:00

Date STAGE [FT] FLOW [CFS] PRECIPITATION INCREMENT [IN] AIR TEMPERATURE [DEGF] PRECIPITATION TOTAL [IN]
11/19/2018 14:00 5.26 1455.8 -- 33.3 --
11/19/2018 13:00 5.27 1461.9 -- 32.4 --
11/19/2018 12:00 5.27 1461.9 0.00 31.6 --
11/19/2018 11:00 5.28 1467.9 0.00 30.3 --
11/19/2018 10:00 5.29 1473.9 0.00 29.8 --
11/19/2018 09:00 5.30 1480.0 0.00 29.4 --
11/19/2018 08:00 5.31 1485.9 0.00 28.9 --
11/19/2018 07:00 5.31 1485.9 0.00 28.7 --
11/19/2018 06:00 5.32 1491.9 0.00 28.3 --
11/19/2018 05:00 5.33 1497.9 0.00 28.0 --
11/19/2018 04:00 5.33 1497.9 0.00 27.9 --
11/19/2018 03:00 5.34 1503.9 0.00 27.6 --
11/19/2018 02:00 5.35 1509.8 0.00 27.1 --
11/19/2018 01:00 5.35 1509.8 0.00 27.1 --
11/19/2018 00:00 5.36 1515.9 0.00 26.0 --
11/18/2018 23:00 5.37 1521.9 0.00 25.6 --
11/18/2018 22:00 5.38 1527.9 0.00 27.0 --
11/18/2018 21:00 5.38 1527.9 0.00 28.2 --
11/18/2018 20:00 5.39 1533.9 0.00 28.7 --
11/18/2018 19:00 5.40 1540.0 0.00 29.8 --
11/18/2018 18:00 5.41 1545.9 0.00 31.1 --
11/18/2018 17:00 5.42 1551.9 0.00 32.5 --
11/18/2018 16:00 5.42 1551.9 0.00 33.0 --
11/18/2018 15:00 5.43 1557.9 0.00 33.8 --
11/18/2018 14:00 5.44 1563.9 0.00 34.5 --
11/18/2018 13:00 5.45 1569.9 0.00 32.7 --
11/18/2018 12:00 5.46 1575.9 0.00 32.3 --
11/18/2018 11:00 5.46 1575.9 0.00 31.6 --
11/18/2018 10:00 5.47 1581.9 0.00 31.2 --
11/18/2018 09:00 5.48 1587.9 0.00 26.9 --
11/18/2018 08:00 5.49 1593.9 0.00 26.5 --
11/18/2018 07:00 5.50 1600.0 0.00 27.8 --
11/18/2018 06:00 5.51 1606.0 0.00 29.1 --
11/18/2018 05:00 5.53 1617.9 0.00 31.8 --
11/18/2018 04:00 5.53 1617.9 0.00 33.4 --
11/18/2018 03:00 5.54 1623.9 0.00 34.4 --
11/18/2018 02:00 5.55 1629.9 0.00 35.7 --
11/18/2018 01:00 5.55 1629.9 0.00 36.5 --
11/18/2018 00:00 5.56 1635.9 0.00 36.8 0.00
11/17/2018 23:00 5.57 1641.9 0.00 38.2 --
11/17/2018 22:00 5.58 1647.9 0.00 38.8 --
11/17/2018 21:00 5.59 1654.0 0.00 37.5 --
11/17/2018 20:00 5.59 1654.0 0.01 36.9 --
11/17/2018 19:00 5.60 1660.0 0.00 36.9 --
11/17/2018 18:00 5.61 1665.9 0.01 39.1 --
11/17/2018 17:00 5.62 1671.8 0.01 41.5 --
11/17/2018 16:00 5.63 1677.7 0.01 42.1 --
11/17/2018 15:00 5.64 1683.7 0.02 43.2 --
11/17/2018 14:00 5.65 1689.6 0.03 43.5 --
11/17/2018 13:00 5.66 1695.6 0.04 44.1 --
11/17/2018 12:00 5.67 1701.5 0.06 43.1 --
11/17/2018 11:00 5.68 1707.5 0.06 43.0 --
11/17/2018 10:00 5.68 1707.5 0.04 40.6 --
11/17/2018 09:00 5.69 1713.5 0.03 37.8 --
11/17/2018 08:00 5.70 1719.5 0.01 37.1 --
11/17/2018 07:00 5.72 1731.5 0.00 37.7 --
11/17/2018 06:00 5.73 1737.5 0.01 38.4 --
11/17/2018 05:00 5.73 1737.5 0.00 38.1 --
11/17/2018 04:00 5.73 1737.5 0.00 34.5 --
11/17/2018 03:00 5.74 1743.6 0.00 32.2 --
11/17/2018 02:00 5.74 1743.6 0.00 32.1 --
11/17/2018 01:00 5.75 1749.6 0.00 32.1 --
11/17/2018 00:00 5.76 1755.7 0.00 32.0 0.34
11/16/2018 23:00 5.76 1755.7 0.00 29.8 --
11/16/2018 22:00 5.77 1761.7 0.00 28.6 --
11/16/2018 21:00 5.77 1761.7 0.00 29.9 --
11/16/2018 20:00 5.78 1767.8 0.00 31.2 --
11/16/2018 19:00 5.79 1773.9 0.00 31.5 --
11/16/2018 18:00 5.79 1773.9 0.00 32.0 --
11/16/2018 17:00 5.80 1780.0 0.00 32.6 --
11/16/2018 16:00 5.81 1786.0 0.00 32.9 --
11/16/2018 15:00 5.82 1791.9 0.00 31.7 --
11/16/2018 14:00 5.82 1791.9 0.00 30.5 --
11/16/2018 13:00 5.83 1797.9 0.00 29.1 --
11/16/2018 12:00 5.85 1809.9 0.00 27.7 --
11/16/2018 11:00 5.85 1809.9 0.00 27.2 --
11/16/2018 10:00 5.86 1815.9 0.00 26.4 --
11/16/2018 09:00 5.86 1815.9 0.00 26.3 --
11/16/2018 08:00 5.86 1815.9 0.00 25.8 --
11/16/2018 07:00 5.86 1815.9 0.00 25.3 --
11/16/2018 06:00 5.86 1815.9 0.00 24.4 --
11/16/2018 05:00 5.86 1815.9 0.00 23.7 --
11/16/2018 04:00 5.86 1815.9 0.00 23.9 --
11/16/2018 03:00 5.86 1815.9 0.00 23.5 --
11/16/2018 02:00 5.87 1821.9 0.00 24.1 --
11/16/2018 01:00 5.87 1821.9 0.00 25.2 --
11/16/2018 00:00 5.87 1821.9 0.00 26.7 0.00
11/15/2018 23:00 5.88 1827.9 0.00 27.0 --
11/15/2018 22:00 5.88 1827.9 0.00 27.1 --
11/15/2018 21:00 5.88 1827.9 0.00 27.4 --
11/15/2018 20:00 5.89 1834.0 0.00 27.6 --
11/15/2018 19:00 5.89 1834.0 0.00 28.0 --
11/15/2018 18:00 5.90 1840.0 0.00 28.8 --
11/15/2018 17:00 5.90 1840.0 0.00 29.6 --
11/15/2018 16:00 5.91 1846.0 0.00 30.1 --
11/15/2018 15:00 5.91 1846.0 0.00 30.1 --
11/15/2018 14:00 5.92 1851.9 0.00 28.7 --
11/15/2018 13:00 5.92 1851.9 0.00 26.3 --
11/15/2018 12:00 5.92 1851.9 0.00 23.8 --
11/15/2018 11:00 5.92 1851.9 0.00 22.4 --
11/15/2018 10:00 5.92 1851.9 0.00 20.2 --
11/15/2018 09:00 5.92 1851.9 0.00 16.5 --
11/15/2018 08:00 5.92 1851.9 0.00 13.4 --
11/15/2018 07:00 5.92 1851.9 0.00 13.5 --
11/15/2018 06:00 5.92 1851.9 0.00 13.4 --
11/15/2018 05:00 5.92 1851.9 0.00 14.1 --
11/15/2018 04:00 5.92 1851.9 0.00 15.0 --
11/15/2018 03:00 5.92 1851.9 0.00 15.8 --
11/15/2018 02:00 5.92 1851.9 0.00 15.6 --
11/15/2018 01:00 5.92 1851.9 0.00 16.3 --
11/15/2018 00:00 5.92 1851.9 0.00 16.4 0.00
11/14/2018 23:00 5.92 1851.9 0.00 17.7 --
11/14/2018 22:00 5.93 1857.9 0.00 17.5 --
11/14/2018 21:00 5.93 1857.9 0.00 19.0 --
11/14/2018 20:00 5.94 1863.9 0.00 18.7 --
11/14/2018 19:00 5.93 1857.9 0.00 19.8 --
11/14/2018 18:00 5.94 1863.9 0.00 20.1 --
11/14/2018 17:00 5.96 1875.9 0.00 21.5 --
11/14/2018 16:00 5.97 1881.9 0.00 23.9 --
11/14/2018 15:00 5.97 1881.9 0.00 24.8 --
11/14/2018 14:00 5.98 1887.9 0.00 26.1 --
11/14/2018 13:00 5.97 1881.9 0.00 26.2 --
11/14/2018 12:00 5.95 1869.9 0.00 26.2 --
11/14/2018 11:00 5.94 1863.9 0.00 25.8 --
11/14/2018 10:00 5.93 1857.9 0.00 25.2 --
11/14/2018 09:00 5.92 1851.9 0.00 24.2 --
11/14/2018 08:00 5.91 1846.0 0.00 24.0 --
11/14/2018 07:00 5.90 1840.0 0.00 24.3 --
11/14/2018 06:00 5.91 1846.0 0.00 24.9 --
11/14/2018 05:00 5.90 1840.0 0.00 24.8 --
11/14/2018 04:00 5.90 1840.0 0.00 25.8 --
11/14/2018 03:00 5.91 1846.0 0.00 27.1 --
11/14/2018 02:00 5.91 1846.0 0.00 28.6 --
11/14/2018 01:00 5.90 1840.0 0.00 31.4 --
11/14/2018 00:00 5.88 1827.9 0.01 34.7 0.00
11/13/2018 23:00 5.87 1821.9 0.00 37.4 --
11/13/2018 22:00 5.87 1821.9 0.01 36.8 --
11/13/2018 21:00 5.87 1821.9 0.02 35.8 --
11/13/2018 20:00 5.85 1809.9 0.02 35.6 --
11/13/2018 19:00 5.86 1815.9 0.01 35.6 --
11/13/2018 18:00 5.86 1815.9 0.01 35.9 --
11/13/2018 17:00 5.86 1815.9 0.02 36.2 --
11/13/2018 16:00 5.86 1815.9 0.03 36.1 --
11/13/2018 15:00 5.86 1815.9 0.05 35.6 --
11/13/2018 14:00 5.86 1815.9 0.07 34.6 --
11/13/2018 13:00 5.86 1815.9 0.11 34.2 --
11/13/2018 12:00 5.86 1815.9 0.18 34.0 --
11/13/2018 11:00 5.85 1809.9 0.24 33.6 --
11/13/2018 10:00 5.83 1797.9 0.25 33.3 --
11/13/2018 09:00 5.82 1791.9 0.12 33.4 --
11/13/2018 08:00 5.82 1791.9 0.00 32.8 --
11/13/2018 07:00 5.82 1791.9 0.00 33.0 --
11/13/2018 06:00 5.82 1791.9 0.00 32.6 --
11/13/2018 05:00 5.82 1791.9 0.00 32.4 --
11/13/2018 04:00 5.82 1791.9 0.00 32.6 --
11/13/2018 03:00 5.83 1797.9 0.00 33.2 --
11/13/2018 02:00 5.84 1803.9 0.00 33.0 --
11/13/2018 01:00 5.84 1803.9 0.00 32.4 --
11/13/2018 00:00 5.85 1809.9 0.00 32.0 1.15
11/12/2018 23:00 5.85 1809.9 0.00 31.2 --
11/12/2018 22:00 5.86 1815.9 0.00 30.4 --
11/12/2018 21:00 5.86 1815.9 0.00 29.5 --
11/12/2018 20:00 5.87 1821.9 0.00 29.6 --
11/12/2018 19:00 5.88 1827.9 0.00 30.5 --
11/12/2018 18:00 5.88 1827.9 0.00 33.3 --
11/12/2018 17:00 5.89 1834.0 0.00 40.0 --
11/12/2018 16:00 5.89 1834.0 0.00 44.1 --
11/12/2018 15:00 5.90 1840.0 0.00 43.4 --
11/12/2018 14:00 5.91 1846.0 0.00 43.5 --
11/12/2018 13:00 5.91 1846.0 0.00 42.0 --
11/12/2018 12:00 5.91 1846.0 0.00 39.8 --
11/12/2018 11:00 5.92 1851.9 0.00 38.3 --
11/12/2018 10:00 5.93 1857.9 0.00 35.3 --
11/12/2018 09:00 5.93 1857.9 0.00 24.2 --
11/12/2018 08:00 5.93 1857.9 0.00 20.4 --
11/12/2018 07:00 5.94 1863.9 0.00 20.5 --
11/12/2018 06:00 5.95 1869.9 0.00 21.3 --
11/12/2018 05:00 5.95 1869.9 0.00 22.1 --
11/12/2018 04:00 5.96 1875.9 0.00 23.3 --
11/12/2018 03:00 5.97 1881.9 0.00 23.5 --
11/12/2018 02:00 5.97 1881.9 0.00 25.0 --
11/12/2018 01:00 5.98 1887.9 0.00 25.3 --
11/12/2018 00:00 5.99 1894.0 0.00 26.9 0.00
11/11/2018 23:00 6.00 1900.0 0.00 27.9 --
11/11/2018 22:00 6.00 1900.0 0.00 30.5 --
11/11/2018 21:00 6.00 1900.0 0.00 29.7 --
11/11/2018 20:00 6.02 1917.8 0.00 29.8 --
11/11/2018 19:00 6.02 1917.8 0.00 31.3 --
11/11/2018 18:00 6.03 1926.7 0.00 33.3 --
11/11/2018 17:00 6.04 1935.7 0.00 35.4 --
11/11/2018 16:00 6.06 1953.7 0.00 37.4 --
11/11/2018 15:00 6.06 1953.7 0.00 37.7 --
11/11/2018 14:00 6.07 1962.7 0.00 37.3 --
11/11/2018 13:00 6.07 1962.7 0.00 36.2 --
11/11/2018 12:00 6.08 1971.8 0.00 36.3 --
11/11/2018 11:00 6.08 1971.8 0.00 34.5 --
11/11/2018 10:00 6.08 1971.8 0.00 33.0 --
11/11/2018 09:00 6.09 1980.9 0.00 31.9 --
11/11/2018 08:00 6.08 1971.8 0.00 30.5 --
11/11/2018 07:00 6.10 1990.0 0.00 31.1 --
11/11/2018 06:00 6.10 1990.0 0.00 31.7 --
11/11/2018 05:00 6.12 2005.9 0.00 32.1 --
11/11/2018 04:00 6.13 2013.8 0.00 32.3 --
11/11/2018 03:00 6.12 2005.9 0.00 32.8 --
11/11/2018 02:00 6.13 2013.8 0.00 33.6 --
11/11/2018 01:00 6.14 2021.8 0.00 34.6 --
11/11/2018 00:00 6.12 2005.9 0.00 35.4 0.00
11/10/2018 23:00 6.13 2013.8 0.00 36.2 --
11/10/2018 22:00 6.13 2013.8 0.00 36.3 --
11/10/2018 21:00 6.13 2013.8 0.00 36.3 --
11/10/2018 20:00 6.13 2013.8 0.00 36.6 --
11/10/2018 19:00 6.13 2013.8 0.00 36.7 --
11/10/2018 18:00 6.13 2013.8 0.00 36.9 --
11/10/2018 17:00 6.14 2021.8 0.00 38.1 --
11/10/2018 16:00 6.12 2005.9 0.00 41.6 --
11/10/2018 15:00 6.12 2005.9 0.01 40.0 --
11/10/2018 14:00 6.11 1997.9 0.00 41.5 --
11/10/2018 13:00 6.11 1997.9 0.00 41.6 --
11/10/2018 12:00 6.11 1997.9 0.00 41.0 --
11/10/2018 11:00 6.11 1997.9 0.00 40.2 --
11/10/2018 10:00 6.11 1997.9 0.01 38.0 --
11/10/2018 09:00 6.12 2005.9 0.03 37.0 --
11/10/2018 08:00 6.12 2005.9 0.02 36.2 --
11/10/2018 07:00 6.12 2005.9 0.01 35.9 --
11/10/2018 06:00 6.12 2005.9 0.02 35.8 --
11/10/2018 05:00 6.13 2013.8 0.01 35.8 --
11/10/2018 04:00 6.13 2013.8 0.01 36.0 --
11/10/2018 03:00 6.14 2021.8 0.01 35.9 --
11/10/2018 02:00 6.15 2029.8 0.03 35.0 --
11/10/2018 01:00 6.15 2029.8 0.06 35.8 --
11/10/2018 00:00 6.15 2029.8 0.10 37.7 0.22
11/09/2018 23:00 6.14 2021.8 0.10 38.3 --
11/09/2018 22:00 6.13 2013.8 0.18 38.0 --
11/09/2018 21:00 6.12 2005.9 0.18 38.6 --
11/09/2018 20:00 6.13 2013.8 0.28 38.9 --
11/09/2018 19:00 6.13 2013.8 0.16 41.1 --
11/09/2018 18:00 6.13 2013.8 0.02 41.8 --
11/09/2018 17:00 6.15 2029.8 0.00 42.7 --
11/09/2018 16:00 6.16 2037.8 0.00 43.5 --
11/09/2018 15:00 6.16 2037.8 0.00 43.9 --
11/09/2018 14:00 6.17 2045.8 0.00 44.3 --
11/09/2018 13:00 6.19 2061.9 0.00 43.6 --
11/09/2018 12:00 6.20 2070.0 0.00 43.1 --
11/09/2018 11:00 6.20 2070.0 0.00 42.5 --
11/09/2018 10:00 6.21 2078.9 0.00 38.1 --
11/09/2018 09:00 6.22 2087.8 0.00 30.7 --
11/09/2018 08:00 6.23 2096.8 0.00 27.8 --
11/09/2018 07:00 6.24 2105.7 0.00 27.7 --
11/09/2018 06:00 6.24 2105.7 0.00 28.3 --
11/09/2018 05:00 6.25 2114.7 0.00 29.4 --
11/09/2018 04:00 6.26 2123.7 0.00 30.2 --
11/09/2018 03:00 6.27 2132.8 0.00 30.4 --
11/09/2018 02:00 6.28 2141.8 0.00 32.5 --
11/09/2018 01:00 6.29 2150.9 0.00 34.2 --
11/09/2018 00:00 6.30 2160.0 0.00 33.9 1.02
11/08/2018 23:00 6.31 2169.9 0.00 35.9 --
11/08/2018 22:00 6.32 2179.8 0.00 37.5 --
11/08/2018 21:00 6.32 2179.8 0.00 36.9 --
11/08/2018 20:00 6.33 2189.7 0.00 37.2 --
11/08/2018 19:00 6.34 2199.6 0.00 40.1 --
11/08/2018 18:00 6.36 2219.6 0.00 43.5 --
11/08/2018 17:00 6.37 2229.7 0.00 47.7 --
11/08/2018 16:00 6.38 2239.8 0.00 49.3 --
11/08/2018 15:00 6.40 2260.0 0.00 51.2 --
11/08/2018 14:00 6.40 2260.0 0.00 51.0 --
11/08/2018 13:00 6.41 2268.9 0.00 50.6 --
11/08/2018 12:00 6.41 2268.9 0.00 50.0 --
11/08/2018 11:00 6.41 2268.9 0.00 50.5 --
11/08/2018 10:00 6.41 2268.9 0.00 48.7 --
11/08/2018 09:00 6.41 2268.9 0.00 42.8 --
11/08/2018 08:00 6.42 2277.8 0.00 41.6 --
11/08/2018 07:00 6.42 2277.8 0.00 41.4 --
11/08/2018 06:00 6.42 2277.8 0.00 41.0 --
11/08/2018 05:00 6.43 2286.8 0.00 43.1 --
11/08/2018 04:00 6.43 2286.8 0.00 45.0 --
11/08/2018 03:00 6.43 2286.8 0.00 45.5 --
11/08/2018 02:00 6.43 2286.8 0.00 43.3 --
11/08/2018 01:00 6.43 2286.8 0.00 47.5 --
11/08/2018 00:00 6.43 2286.8 0.00 48.6 0.00
11/07/2018 23:00 6.42 2277.8 0.00 37.6 --
11/07/2018 22:00 6.42 2277.8 0.00 38.6 --
11/07/2018 21:00 6.42 2277.8 0.00 41.6 --
11/07/2018 20:00 6.42 2277.8 0.00 47.6 --
11/07/2018 19:00 6.42 2277.8 0.00 49.5 --
11/07/2018 18:00 6.42 2277.8 0.00 52.4 --
11/07/2018 17:00 6.42 2277.8 0.00 54.5 --
11/07/2018 16:00 6.41 2268.9 0.00 56.3 --
11/07/2018 15:00 6.40 2260.0 0.00 55.0 --
11/07/2018 14:00 6.40 2260.0 0.00 57.4 --
11/07/2018 13:00 6.39 2249.9 0.00 55.5 --
11/07/2018 12:00 6.38 2239.8 0.00 56.3 --
11/07/2018 11:00 6.37 2229.7 0.00 55.8 --
11/07/2018 10:00 6.35 2209.6 0.00 55.2 --
11/07/2018 09:00 6.33 2189.7 0.00 51.4 --
11/07/2018 08:00 6.32 2179.8 0.00 47.8 --
11/07/2018 07:00 6.31 2169.9 0.00 47.3 --
11/07/2018 06:00 6.31 2169.9 0.00 49.7 --
11/07/2018 05:00 6.30 2160.0 0.00 49.3 --
11/07/2018 04:00 6.30 2160.0 0.00 50.1 --
11/07/2018 03:00 6.29 2150.9 0.00 49.9 --
11/07/2018 02:00 6.29 2150.9 0.00 47.7 --
11/07/2018 01:00 6.28 2141.8 0.00 49.0 --
11/07/2018 00:00 6.28 2141.8 0.01 49.0 0.00
11/06/2018 23:00 6.28 2141.8 0.00 48.3 --
11/06/2018 22:00 6.28 2141.8 0.00 46.0 --
11/06/2018 21:00 6.29 2150.9 0.00 46.0 --
11/06/2018 20:00 6.28 2141.8 0.00 46.1 --
11/06/2018 19:00 6.28 2141.8 0.05 46.1 --
11/06/2018 18:00 6.28 2141.8 0.05 46.5 --
11/06/2018 17:00 6.28 2141.8 0.07 46.7 --
11/06/2018 16:00 6.29 2150.9 0.01 46.5 --
11/06/2018 15:00 6.26 2123.7 0.02 46.4 --
11/06/2018 14:00 6.26 2123.7 0.18 46.7 --
11/06/2018 13:00 6.26 2123.7 0.14 46.5 --
11/06/2018 12:00 6.27 2132.8 0.05 45.8 --
11/06/2018 11:00 6.27 2132.8 0.00 44.8 --
11/06/2018 10:00 6.28 2141.8 0.00 43.3 --
11/06/2018 09:00 6.28 2141.8 0.01 41.8 --
11/06/2018 08:00 6.28 2141.8 0.01 40.6 --
11/06/2018 07:00 6.28 2141.8 0.01 40.1 --
11/06/2018 06:00 6.29 2150.9 0.01 39.7 --
11/06/2018 05:00 6.29 2150.9 0.01 39.3 --
11/06/2018 04:00 6.29 2150.9 0.02 38.5 --
11/06/2018 03:00 6.29 2150.9 0.01 38.1 --
11/06/2018 02:00 6.29 2150.9 0.04 37.7 --
11/06/2018 01:00 6.29 2150.9 0.08 37.4 --
11/06/2018 00:00 6.29 2150.9 0.08 37.3 0.78
11/05/2018 23:00 6.28 2141.8 0.03 36.8 --
11/05/2018 22:00 6.29 2150.9 0.03 37.1 --
11/05/2018 21:00 6.28 2141.8 0.01 37.0 --
11/05/2018 20:00 6.28 2141.8 0.00 37.4 --
11/05/2018 19:00 6.28 2141.8 0.00 37.3 --
11/05/2018 18:00 6.28 2141.8 0.00 37.5 --
11/05/2018 17:00 6.28 2141.8 0.00 38.0 --
11/05/2018 16:00 6.28 2141.8 0.00 37.9 --
11/05/2018 15:00 -- -- -- -- --
11/05/2018 14:00 -- -- -- -- --
11/05/2018 13:00 -- -- -- -- --
11/05/2018 12:00 -- -- -- -- --
11/05/2018 11:00 -- -- -- -- --
11/05/2018 10:00 -- -- -- -- --
11/05/2018 09:00 -- -- -- -- --
11/05/2018 08:00 -- -- -- -- --
11/05/2018 07:00 -- -- -- -- --
11/05/2018 06:00 -- -- -- -- --
11/05/2018 05:00 -- -- -- -- --
11/05/2018 04:00 -- -- -- -- --
11/05/2018 03:00 -- -- -- -- --
11/05/2018 02:00 -- -- -- -- --
11/05/2018 01:00 -- -- -- -- --
11/05/2018 00:00 -- -- -- -- 0.15